Tracking 32579 objects as of 17-Dec-2025
HD Live streaming from Space Station
objects crossing your sky now

USA 160

Track USA 160 now!
10-day predictions
USA 160 is classified as:


NORAD ID: 26905
Int'l Code: 2001-040A
Perigee: 627.9 km
Apogee: 1,593.5 km
Inclination: 63.4 °
Period: 107.3 minutes
Semi major axis: 7481 km
RCS: Unknown
Launch date: September 8, 2001
Source: United States (US)
Launch site: AIR FORCE WESTERN TEST RANGE (AFWTR)
Your satellite tracking list
Your tracking list is empty




NASA's NSSDC Master Catalog

Two Line Element Set (TLE):
1 26905U 01040A   25336.20948085 0.00000160  00000-0  81677-4 0    05
2 26905  63.3759  36.3945 0645286  11.2428 348.7572 13.41542201    05
Source of the keplerian elements: McCants